ONEWEB-0272 (48990 NORAD) Tracking and Keplerian Element Data

This shows tracking and keplerian element data for the satellite.

Feedback or suggestion? Click here.




ElementValue
Catalog48990
NameONEWEB-0272
Epoch Orbit567
Epoch Day211.25001157
Epoch Year2021
RAAN227.4209
Inclination87.4554
Eccentricity0.0007907
Argument of Perigee145.6329
Mean Anonmoly283.2728
Mean Motion14.97873463
Decay Rate-0.01457047
L11 48990U 21060Z 21211.25001157 -.01457047 00000-0 -13574+0 0 9996
L22 48990 87.4554 227.4209 0007907 145.6329 283.2728 14.97873463 5676

Live tracking and technical data element details for ONEWEB-0272 (NORAD 48990). ONEWEB-0272 can be tracked NOW for your location showing map with azimuth and elevation plus other details from your city location.

Track the satellite on the map from your city or location and see movement details for azimuth, elevation, latitude, longitude, range, height, and movement on the map or in text.







IsCatalogInMostPopularTable: catalog: 48990, numindb: 1
Update: records affected: 1



GetName: 48990 ONEWEB-0272

Hit Count: updated at: Sat, 31 Jul 2021 15:43:03 GMT